Ithaca, NY

1:31 PM EDT on June 23, 2017 (GMT -0400)
Tompkins County

Weather History for KITH - March, 2013

Change the Weather History Date:

Sunday, March 10, 2013

  Actual Average Record
Temperature  
Mean Temperature 41 °F -  
Max Temperature 55 °F 39 °F 67 °F (1977)
Min Temperature 27 °F 20 °F -10 °F (1984)
Degree Days  
Heating Degree Days 24    
Moisture  
Dew Point 22 °F    
Average Humidity 42    
Maximum Humidity 78    
Minimum Humidity 27    
Precipitation  
Precipitation 0.00 in - - ()
Sea Level Pressure  
Sea Level Pressure 30.19 in    
Wind  
Wind Speed 10 mph (SSE)    
Max Wind Speed 16 mph    
Max Gust Speed 24 mph    
Visibility 10 miles    
Events      
Averages and records for this station are not official NWS values.
T = Trace of Precipitation, MM = Missing Value Source: NWS Daily Summary

Daily Weather History Graph

Daily Weather History Graph

Search for Another Location

Airport or City:

Trip Planner

Search our weather history database for the weather conditions in past years. The results will help you decide how hot, cold, wet, or windy it might be!

Date:

Astronomy

Mar. 10, 2013 Rise Set
Actual Time 7:25 AM EDT 7:06 PM EDT
Civil Twilight 6:57 AM EDT 7:34 PM EDT
Nautical Twilight 6:25 AM EDT 8:07 PM EDT
Astronomical Twilight 5:52 AM EDT 8:40 PM EDT
Moon 6:25 AM EDT (3/10) 6:11 PM EDT (3/10)
Length of Visible Light 12h 36m
Length of Day
11h 40m
Waning Crescent, 2% of the Moon is Illuminated
Mar 10
Waning Crescent
Mar 11
New
Mar 19
First Quarter
Mar 27
Full
Apr 3
Last Quarter

Hourly Weather History & Observations

Time (EDT) Temp. Windchill Dew Point Humidity Pressure Visibility Wind Dir Wind Speed Gust Speed Precip Events Conditions
12:56 AM 29.1 °F 22.1 °F 22.1 °F 75% 30.29 in 10.0 mi East 6.9 mph - N/A   Clear
1:56 AM 27.1 °F 23.2 °F 21.0 °F 78% 30.28 in 10.0 mi East 3.5 mph - N/A   Clear
3:56 AM 32.9 °F 28.5 °F 22.1 °F 65% 30.26 in 10.0 mi ENE 4.6 mph - N/A   Clear
4:56 AM 36.9 °F 30.7 °F 22.1 °F 55% 30.25 in 10.0 mi SSE 8.1 mph - N/A   Clear
5:56 AM 36.9 °F 30.7 °F 21.0 °F 53% 30.24 in 10.0 mi SSE 8.1 mph - N/A   Clear
6:21 AM 39.2 °F 32.0 °F 19.4 °F 45% 30.21 in 10.0 mi SSE 11.5 mph - N/A   Clear
6:56 AM 37.9 °F 30.5 °F 21.0 °F 51% 30.24 in 10.0 mi SSE 11.5 mph - N/A   Clear
7:56 AM 39.9 °F 32.1 °F 21.0 °F 47% 30.23 in 10.0 mi SSE 13.8 mph - N/A   Clear
8:56 AM 41.9 °F 34.3 °F 19.0 °F 40% 30.25 in 10.0 mi South 15.0 mph 24.2 mph N/A   Partly Cloudy
9:56 AM 43.0 °F 35.7 °F 19.0 °F 38% 30.25 in 10.0 mi SSE 15.0 mph - N/A   Scattered Clouds
10:56 AM 46.9 °F - 18.1 °F 32% 30.24 in 10.0 mi South 15.0 mph - N/A   Partly Cloudy
11:56 AM 50.9 °F - 21.0 °F 31% 30.22 in 10.0 mi South 12.7 mph - N/A   Partly Cloudy
12:56 PM 52.0 °F - 21.0 °F 30% 30.21 in 10.0 mi South 12.7 mph 20.7 mph N/A   Clear
1:56 PM 54.0 °F - 21.0 °F 28% 30.18 in 10.0 mi South 15.0 mph - N/A   Mostly Cloudy
2:56 PM 54.9 °F - 21.0 °F 27% 30.16 in 10.0 mi South 11.5 mph 19.6 mph N/A   Mostly Cloudy
3:56 PM 55.9 °F - 22.1 °F 27% 30.14 in 10.0 mi South 11.5 mph - N/A   Mostly Cloudy
4:56 PM 54.0 °F - 23.0 °F 30% 30.12 in 10.0 mi South 16.1 mph - N/A   Mostly Cloudy
5:56 PM 54.0 °F - 23.0 °F 30% 30.12 in 10.0 mi South 13.8 mph 18.4 mph N/A   Mostly Cloudy
6:56 PM 50.9 °F - 23.0 °F 34% 30.12 in 10.0 mi SSE 12.7 mph - N/A   Scattered Clouds
7:56 PM 50.0 °F - 24.1 °F 36% 30.12 in 10.0 mi SSE 10.4 mph - N/A   Partly Cloudy
8:56 PM 50.0 °F - 23.0 °F 35% 30.13 in 10.0 mi South 11.5 mph - N/A   Clear
9:56 PM 47.8 °F - 25.2 °F 41% 30.13 in 10.0 mi SSE 16.1 mph 23.0 mph N/A   Partly Cloudy
10:56 PM 47.8 °F - 24.1 °F 39% 30.15 in 10.0 mi South 11.5 mph - N/A   Partly Cloudy
11:56 PM 46.9 °F - 24.1 °F 41% 30.13 in 10.0 mi South 9.2 mph - N/A   Clear
12:56 AM 45.9 °F 39.4 °F 22.1 °F 39% 30.09 in 10.0 mi SSE 15.0 mph 21.9 mph N/A   Clear